1483398001.17,26745,10.13,72266.8,-16.37,-17.55,-17.31,0,*63
1483398002.43,26746,10.13,72278.0,-16.39,-17.49,-17.35,0,*67
1483398003.71,26747,10.13,72274.5,-16.39,-17.45,-17.35,0,*6A
1483398004.94,26748,10.13,72272.5,-16.41,-17.35,-17.35,0,*6D
1483398006.16,26749,10.13,72288.0,-16.41,-17.35,-17.31,0,*68
1483398007.37,26750,10.13,72270.5,-16.41,-17.31,-17.31,0,*64
1483398008.62,26751,10.13,72262.3,-16.43,-17.35,-17.35,0,*67
1483398009.86,26752,10.13,72280.5,-16.39,-17.31,-17.31,0,*69
1483398011.07,26753,10.13,72286.0,-16.41,-17.31,-17.31,0,*67
1483398012.29,26754,10.13,72276.3,-16.41,-17.35,-17.31,0,*64
1483398013.51,26755,10.13,72280.5,-16.41,-17.35,-17.31,0,*65
1483398014.73,26756,10.13,72286.8,-16.41,-17.35,-17.31,0,*66
1483398015.98,26757,10.13,72268.0,-16.41,-17.35,-17.25,0,*62
1483398017.19,26758,10.13,72294.3,-16.41,-17.31,-17.31,0,*6C
1483398018.4,26759,10.13,72298.3,-16.41,-17.31,-17.31,0,*6D
1483398019.64,26760,10.13,72290.0,-16.39,-17.31,-17.31,0,*68
1483398020.88,26761,10.06,72266.0,-16.39,-17.35,-17.31,0,*6D
1483398022.16,26762,10.13,72270.0,-16.39,-17.45,-17.35,0,*6D
1483398023.42,26763,10.06,72268.0,-16.41,-17.45,-17.35,0,*63
1483398024.67,26764,10.13,72268.3,-16.41,-17.35,-17.25,0,*62
1483398025.93,26765,10.13,72270.3,-16.41,-17.25,-17.25,0,*62
1483398027.23,26766,10.06,72276.3,-16.43,-17.21,-17.11,0,*60
1483398028.5,26767,10.06,72276.5,-16.41,-17.11,-17.11,0,*60
1483398029.8,26768,10.06,72276.5,-16.39,-17.11,-17.03,0,*63
1483398031.1,26769,10.13,72278.8,-16.39,-17.17,-17.11,0,*67
1483398032.39,26770,10.13,72268.0,-16.39,-17.25,-17.17,0,*68
1483398033.67,26771,10.13,72294.5,-16.39,-17.45,-17.31,0,*6B
1483398034.91,26772,10.13,72284.8,-16.39,-17.35,-17.31,0,*6F
1483398036.16,26773,10.13,72278.5,-16.39,-17.35,-17.31,0,*6E
1483398037.43,26774,10.13,72262.3,-16.39,-17.45,-17.31,0,*6E
1483398038.67,26775,10.13,72262.5,-16.39,-17.35,-17.31,0,*68
1483398039.92,26776,10.13,72250.3,-16.39,-17.35,-17.31,0,*6B
1483398041.13,26777,10.13,72252.8,-16.37,-17.31,-17.31,0,*60
1483398042.37,26778,10.13,72252.8,-16.39,-17.35,-17.31,0,*65
1483398043.65,26779,10.13,72270.8,-16.39,-17.35,-17.25,0,*61
1483398044.91,26780,10.13,72276.3,-16.41,-17.25,-17.17,0,*68
1483398046.18,26781,10.13,72260.5,-16.39,-17.31,-17.25,0,*62
1483398047.4,26782,10.13,72266.0,-16.41,-17.35,-17.31,0,*6F
1483398048.64,26783,10.13,72250.5,-16.41,-17.31,-17.17,0,*6E
1483398049.88,26784,10.06,72266.0,-16.41,-17.31,-17.17,0,*69
1483398051.15,26785,10.13,72260.8,-16.41,-17.25,-17.17,0,*6D
1483398052.45,26786,10.13,72250.5,-16.39,-17.25,-17.11,0,*67
1483398053.72,26787,10.13,72266.3,-16.41,-17.25,-17.11,0,*69
1483398054.99,26788,10.13,72264.3,-16.41,-17.17,-17.17,0,*61
1483398056.2,26789,10.13,72262.0,-16.41,-17.31,-17.31,0,*60
1483398057.44,26790,10.13,72284.0,-16.41,-17.25,-17.31,0,*6D
1483398058.71,26791,10.13,72252.5,-16.39,-17.31,-17.25,0,*63
1483398059.97,26792,10.13,72246.8,-16.39,-17.31,-17.25,0,*60
1483398061.27,26793,10.13,72248.8,-16.39,-17.25,-17.11,0,*63
1483398062.57,26794,10.13,72270.3,-16.39,-17.25,-17.17,0,*62
1483398063.83,26795,10.13,72274.8,-16.39,-17.31,-17.25,0,*67
1483398065.1,26796,10.13,72268.0,-16.39,-17.31,-17.17,0,*65
1483398066.36,26797,10.13,72274.5,-16.39,-17.31,-17.25,0,*65
1483398067.63,26798,10.13,72278.5,-16.39,-17.31,-17.25,0,*6A
1483398068.89,26799,10.13,72266.3,-16.39,-17.31,-17.25,0,*6B
1483398070.11,26800,10.06,72262.0,-16.41,-17.35,-17.31,0,*6A
1483398071.38,26801,10.13,72258.0,-16.39,-17.35,-17.25,0,*61
1483398072.63,26802,10.06,72244.0,-16.39,-17.35,-17.31,0,*67
1483398073.87,26803,10.13,72268.5,-16.41,-17.31,-17.25,0,*68
1483398075.14,26804,10.13,72258.5,-16.41,-17.25,-17.17,0,*6B
1483398076.44,26805,10.13,72266.3,-16.39,-17.25,-17.11,0,*63
1483398077.7,26806,10.06,72270.3,-16.39,-17.31,-17.17,0,*63
1483398078.97,26807,10.13,72284.0,-16.39,-17.31,-17.25,0,*63
1483398080.23,26808,10.06,72276.3,-16.39,-17.31,-17.25,0,*6C
1483398081.5,26809,10.13,72290.8,-16.39,-17.35,-17.25,0,*69
1483398082.77,26810,10.13,72288.0,-16.39,-17.35,-17.25,0,*61
1483398084.02,26811,10.13,72288.3,-16.39,-17.35,-17.31,0,*65
1483398085.27,26812,10.13,72286.0,-16.39,-17.35,-17.31,0,*66
1483398086.51,26813,10.13,72288.0,-16.39,-17.35,-17.31,0,*67
1483398087.76,26814,10.06,72284.5,-16.39,-17.35,-17.31,0,*60
1483398089.03,26815,10.13,72294.3,-16.39,-17.35,-17.25,0,*64
1483398090.25,26816,10.06,72286.5,-16.41,-17.35,-17.31,0,*6D
1483398091.53,26817,10.13,72274.0,-16.39,-17.45,-17.35,0,*60
1483398092.79,26818,10.13,72278.5,-16.39,-17.35,-17.35,0,*68
1483398094.08,26819,10.13,72278.5,-16.39,-17.25,-17.25,0,*69
1483398095.38,26820,10.13,72276.0,-16.39,-17.25,-17.11,0,*64
1483398096.68,26821,10.13,72276.8,-16.39,-17.25,-17.03,0,*66
1483398097.95,26822,10.06,72280.5,-16.39,-17.11,-16.97,0,*6E
1483398099.24,26823,10.13,72280.3,-16.39,-17.11,-17.03,0,*63
1483398100.55,26824,10.06,72280.5,-16.39,-17.17,-17.11,0,*61
1483398101.85,26825,10.13,72274.0,-16.39,-17.17,-17.11,0,*60
1483398103.11,26826,10.13,72266.3,-16.37,-17.11,-17.11,0,*6B
1483398104.42,26827,10.13,72256.8,-16.39,-17.17,-17.11,0,*62
1483398105.71,26828,10.13,72262.3,-16.39,-17.11,-17.11,0,*6B
1483398106.98,26829,10.06,72256.5,-16.37,-17.11,-17.07,0,*63
1483398108.26,26830,10.13,72296.0,-16.37,-17.11,-17.07,0,*6B
1483398109.55,26831,10.06,72308.3,-16.39,-17.11,-17.03,0,*60
1483398110.82,26832,10.13,72300.3,-16.39,-17.31,-17.17,0,*64
1483398112.09,26833,10.13,72264.5,-16.39,-17.45,-17.31,0,*62
1483398113.36,26834,10.06,72246.3,-16.39,-17.35,-17.25,0,*67
1483398114.63,26835,10.13,72270.0,-16.39,-17.31,-17.17,0,*63
1483398115.92,26836,10.13,72258.5,-16.39,-17.25,-17.11,0,*63
1483398117.16,26837,10.13,72252.3,-16.37,-17.31,-17.11,0,*69
1483398118.43,26838,10.13,72260.5,-16.37,-17.21,-17.11,0,*67
1483398119.73,26839,10.13,72254.0,-16.39,-17.25,-17.11,0,*6C
1483398121.03,26840,10.06,72250.8,-16.39,-17.17,-17.11,0,*63
1483398122.3,26841,10.06,72268.5,-16.37,-17.11,-17.07,0,*6D
1483398123.57,26842,10.06,72272.0,-16.37,-17.25,-17.11,0,*6E
1483398124.81,26843,10.13,72270.3,-16.37,-17.31,-17.25,0,*6D
1483398126.04,26844,10.06,72278.3,-16.37,-17.31,-17.25,0,*6A
1483398127.29,26845,10.13,72264.8,-16.39,-17.35,-17.31,0,*64
1483398128.56,26846,10.13,72266.0,-16.39,-17.45,-17.31,0,*60
1483398129.81,26847,10.13,72266.8,-16.33,-17.35,-17.21,0,*6D
1483398131.08,26848,10.06,72260.8,-16.39,-17.45,-17.31,0,*6E
1483398132.35,26849,10.06,72250.3,-16.37,-17.41,-17.25,0,*60
1483398133.61,26850,10.13,72260.8,-16.39,-17.31,-17.25,0,*61
1483398134.88,26851,10.13,72252.3,-16.39,-17.31,-17.17,0,*61
1483398136.14,26852,10.06,72246.3,-16.39,-17.31,-17.25,0,*63
1483398137.38,26853,10.13,72252.8,-16.37,-17.31,-17.25,0,*6C
1483398138.62,26854,10.13,72228.8,-16.39,-17.31,-17.31,0,*60
1483398139.85,26855,10.06,72230.5,-16.37,-17.31,-17.25,0,*6A
1483398141.13,26856,10.06,72240.3,-16.37,-17.41,-17.21,0,*6A
1483398142.39,26857,10.13,72254.5,-16.37,-17.41,-17.25,0,*6F
1483398143.67,26858,10.13,72266.0,-16.39,-17.35,-17.25,0,*6D
1483398144.92,26859,10.13,72252.0,-16.39,-17.49,-17.35,0,*66
1483398146.21,26860,10.06,72226.5,-16.39,-17.63,-17.45,0,*63
1483398147.49,26861,10.13,72240.8,-16.39,-17.45,-17.35,0,*61
1483398148.77,26862,10.13,72228.8,-16.39,-17.35,-17.25,0,*64
1483398150.03,26863,10.13,72246.0,-16.39,-17.31,-17.17,0,*60
1483398151.3,26864,10.06,72260.5,-16.39,-17.31,-17.11,0,*61
1483398152.56,26865,10.06,72270.5,-16.39,-17.31,-17.25,0,*67
1483398153.8,26866,10.06,72256.5,-16.39,-17.31,-17.31,0,*61
1483398155.07,26867,10.06,72270.8,-16.39,-17.45,-17.31,0,*63
1483398156.33,26868,10.13,72270.0,-16.41,-17.45,-17.35,0,*67
1483398157.6,26869,10.13,72264.0,-16.39,-17.49,-17.45,0,*62
1483398158.85,26870,10.13,72260.8,-16.41,-17.49,-17.45,0,*65
1483398160.09,26871,10.13,72264.0,-16.41,-17.49,-17.45,0,*64
1483398161.35,26872,10.13,72266.8,-16.39,-17.49,-17.35,0,*6F
1483398162.62,26873,10.13,72264.0,-16.37,-17.45,-17.41,0,*6F
1483398163.87,26874,10.06,72264.5,-16.39,-17.49,-17.49,0,*62
1483398165.09,26875,10.06,72286.0,-16.41,-17.49,-17.35,0,*67
1483398166.35,26876,10.06,72294.0,-16.41,-17.45,-17.35,0,*68
1483398167.59,26877,10.13,72284.8,-16.41,-17.49,-17.45,0,*62
1483398168.82,26878,10.13,72280.3,-16.41,-17.49,-17.35,0,*6A
1483398170.08,26879,10.13,72280.3,-16.41,-17.45,-17.35,0,*67
1483398171.34,26880,10.13,72282.8,-16.43,-17.63,-17.49,0,*6C
1483398172.56,26881,10.13,72272.5,-16.41,-17.49,-17.49,0,*67
1483398173.86,26882,10.13,72262.8,-16.43,-17.41,-17.41,0,*66
1483398175.11,26883,10.06,72262.3,-16.41,-17.45,-17.35,0,*62
1483398176.38,26884,10.06,72264.0,-16.41,-17.59,-17.45,0,*6F
1483398177.6,26885,10.06,72256.5,-16.41,-17.49,-17.49,0,*63
1483398178.89,26886,10.13,72256.0,-16.43,-17.55,-17.41,0,*67
1483398180.19,26887,10.06,72246.3,-16.43,-17.41,-17.41,0,*63
1483398181.46,26888,10.13,72234.5,-16.43,-17.41,-17.31,0,*6B
1483398182.7,26889,10.13,72226.3,-16.41,-17.31,-17.25,0,*6A
1483398183.97,26890,10.13,72222.3,-16.41,-17.25,-17.11,0,*60
1483398185.24,26891,10.13,72234.0,-16.43,-17.31,-17.17,0,*60
1483398186.51,26892,10.06,72258.0,-16.41,-17.25,-17.17,0,*64
1483398187.75,26893,10.06,72278.3,-16.41,-17.31,-17.17,0,*60
1483398188.99,26894,10.06,72270.3,-16.43,-17.35,-17.31,0,*65
1483398190.26,26895,10.13,72244.0,-16.41,-17.25,-17.25,0,*62
1483398191.53,26896,10.06,72244.5,-16.41,-17.25,-17.17,0,*60
1483398192.8,26897,10.13,72298.8,-16.41,-17.17,-17.11,0,*66
1483398194.08,26898,10.06,72266.0,-16.43,-17.35,-17.21,0,*68
1483398195.35,26899,10.06,72246.5,-16.41,-17.25,-17.11,0,*69
1483398196.61,26900,10.13,72282.0,-16.43,-17.31,-17.21,0,*6C
1483398197.89,26901,10.13,72278.8,-16.41,-17.17,-17.11,0,*68
1483398199.16,26902,10.13,72270.0,-16.41,-17.25,-17.11,0,*6A
1483398200.4,26903,10.06,72260.3,-16.41,-17.31,-17.11,0,*6E
1483398201.61,26904,10.13,72266.8,-16.41,-17.31,-17.31,0,*6B
1483398202.87,26905,10.13,72244.0,-16.41,-17.45,-17.35,0,*6D
1483398204.13,26906,10.13,72240.3,-16.41,-17.45,-17.35,0,*6E
1483398205.43,26907,10.06,72250.8,-16.43,-17.41,-17.41,0,*6A
1483398206.65,26908,10.13,72240.0,-16.41,-17.35,-17.35,0,*67
1483398207.91,26909,10.13,72226.3,-16.41,-17.45,-17.35,0,*61
1483398209.21,26910,10.06,72224.3,-16.43,-17.41,-17.41,0,*6C
1483398210.47,26911,10.06,72210.5,-16.41,-17.45,-17.35,0,*68
1483398211.71,26912,10.06,72234.3,-16.41,-17.49,-17.41,0,*64
1483398212.99,26913,10.06,72226.0,-16.41,-17.45,-17.45,0,*6D
1483398214.21,26914,10.06,72212.5,-16.41,-17.49,-17.35,0,*61
1483398215.44,26915,10.13,72212.5,-16.41,-17.49,-17.35,0,*60
1483398216.66,26916,10.13,72222.8,-16.41,-17.35,-17.31,0,*6C
1483398217.93,26917,10.13,72216.0,-16.43,-17.41,-17.31,0,*6C
1483398219.2,26918,10.13,72212.8,-16.43,-17.35,-17.21,0,*61
1483398220.45,26919,10.13,72206.8,-16.41,-17.35,-17.21,0,*62
1483398221.7,26920,10.13,72216.5,-16.43,-17.49,-17.35,0,*64
1483398222.97,26921,10.13,72216.0,-16.43,-17.49,-17.41,0,*66
1483398224.24,26922,10.13,72214.0,-16.41,-17.59,-17.45,0,*62
1483398225.51,26923,10.06,72214.8,-16.43,-17.63,-17.49,0,*64
1483398226.75,26924,10.13,72216.3,-16.41,-17.49,-17.41,0,*61
1483398227.98,26925,10.06,72214.8,-16.41,-17.49,-17.35,0,*63
1483398229.21,26926,10.13,72216.3,-16.41,-17.35,-17.35,0,*6B
1483398230.46,26927,10.13,72226.3,-16.41,-17.35,-17.45,0,*6D
1483398231.76,26928,10.13,72218.3,-16.43,-17.41,-17.41,0,*67
1483398233.01,26929,10.13,72210.3,-16.43,-17.49,-17.35,0,*6D
1483398234.23,26930,10.06,72208.0,-16.41,-17.35,-17.31,0,*68
1483398235.5,26931,10.13,72214.0,-16.43,-17.41,-17.31,0,*68
1483398236.74,26932,10.13,72226.3,-16.43,-17.49,-17.31,0,*63
1483398237.99,26933,10.13,72242.5,-16.43,-17.49,-17.35,0,*66
1483398239.28,26934,10.13,72250.8,-16.43,-17.55,-17.41,0,*6F
1483398240.57,26935,10.13,72238.0,-16.43,-17.63,-17.41,0,*6B
1483398241.84,26936,10.13,72230.5,-16.43,-17.55,-17.49,0,*65
1483398243.1,26937,10.06,72214.5,-16.43,-17.63,-17.49,0,*61
1483398244.4,26938,10.06,72214.3,-16.43,-17.41,-17.41,0,*66
1483398245.64,26939,10.13,72252.3,-16.41,-17.31,-17.25,0,*60
1483398246.89,26940,10.06,72230.8,-16.43,-17.35,-17.35,0,*69
1483398248.16,26941,10.13,72232.8,-16.43,-17.49,-17.41,0,*60
1483398249.46,26942,10.06,72226.0,-16.43,-17.41,-17.41,0,*6B
1483398250.73,26943,10.13,72222.5,-16.43,-17.41,-17.31,0,*6D
1483398252.0,26944,10.13,72238.3,-16.43,-17.41,-17.31,0,*6A
1483398253.27,26945,10.13,72210.8,-16.43,-17.41,-17.31,0,*6B
1483398254.52,26946,10.13,72228.0,-16.41,-17.35,-17.25,0,*6C
1483398255.76,26947,10.13,72246.5,-16.43,-17.35,-17.31,0,*6A
1483398257.01,26948,10.06,72242.0,-16.43,-17.35,-17.31,0,*65
1483398258.23,26949,10.06,72250.5,-16.41,-17.35,-17.31,0,*66
1483398259.44,26950,10.06,72230.0,-16.41,-17.49,-17.31,0,*65
1483398260.69,26951,10.06,72234.5,-16.43,-17.49,-17.35,0,*62
1483398261.93,26952,10.06,72238.5,-16.41,-17.59,-17.31,0,*66
1483398263.2,26953,10.06,72232.5,-16.43,-17.63,-17.49,0,*63
1483398264.46,26954,10.06,72234.8,-16.43,-17.69,-17.55,0,*63
1483398265.72,26955,10.06,72238.3,-16.43,-17.63,-17.49,0,*65
1483398266.99,26956,10.13,72244.8,-16.43,-17.63,-17.49,0,*66
1483398268.25,26957,10.13,72248.5,-16.43,-17.55,-17.49,0,*62
1483398269.52,26958,10.13,72260.3,-16.43,-17.49,-17.41,0,*68
1483398270.79,26959,10.06,72246.8,-16.43,-17.49,-17.41,0,*69
1483398272.07,26960,10.06,72240.3,-16.43,-17.41,-17.49,0,*63
1483398273.37,26961,10.13,72262.3,-16.43,-17.41,-17.41,0,*6A
1483398274.61,26962,10.13,72252.3,-16.45,-17.49,-17.41,0,*67
1483398275.88,26963,10.06,72256.0,-16.43,-17.49,-17.41,0,*60
1483398277.17,26964,10.13,72246.8,-16.43,-17.55,-17.41,0,*6A
1483398278.44,26965,10.06,72278.3,-16.45,-17.55,-17.41,0,*6D
1483398279.68,26966,10.06,72274.0,-16.45,-17.49,-17.41,0,*63
1483398280.96,26967,10.06,72258.8,-16.43,-17.49,-17.41,0,*64
1483398282.26,26968,10.06,72246.8,-16.43,-17.41,-17.41,0,*63
1483398283.51,26969,10.06,72260.0,-16.45,-17.41,-17.35,0,*67
1483398284.79,26970,10.06,72264.8,-16.43,-17.41,-17.35,0,*69
1483398286.07,26971,10.06,72250.8,-16.43,-17.41,-17.35,0,*68
1483398287.32,26972,10.06,72248.3,-16.45,-17.41,-17.35,0,*6D
1483398288.56,26973,10.13,72264.5,-16.45,-17.41,-17.31,0,*68
1483398289.78,26974,10.13,72274.5,-16.45,-17.35,-17.31,0,*6C
1483398291.05,26975,10.06,72268.8,-16.43,-17.31,-17.21,0,*6E
1483398292.31,26976,10.06,72276.5,-16.43,-17.31,-17.17,0,*68
1483398293.58,26977,10.06,72290.5,-16.45,-17.21,-17.17,0,*6E
1483398294.85,26978,10.13,72288.0,-16.43,-17.35,-17.21,0,*67
1483398296.1,26979,10.06,72276.3,-16.43,-17.35,-17.35,0,*63
1483398297.36,26980,10.13,72284.8,-16.43,-17.35,-17.35,0,*65
1483398298.61,26981,10.13,72286.8,-16.43,-17.35,-17.35,0,*64
1483398299.86,26982,10.13,72276.8,-16.43,-17.49,-17.35,0,*6C
1483398301.14,26983,10.06,72278.3,-16.43,-17.55,-17.35,0,*60
1483398302.4,26984,10.06,72274.3,-16.43,-17.55,-17.49,0,*6C
1483398303.64,26985,10.06,72268.0,-16.45,-17.55,-17.49,0,*6B
1483398304.88,26986,10.06,72266.0,-16.45,-17.55,-17.49,0,*68
1483398306.11,26987,10.06,72276.8,-16.45,-17.63,-17.49,0,*6C
1483398307.35,26988,10.06,72280.8,-16.45,-17.55,-17.49,0,*66
1483398308.59,26989,10.06,72270.3,-16.49,-17.73,-17.55,0,*62
1483398309.86,26990,10.06,72212.0,-16.45,-17.79,-17.63,0,*69
1483398311.1,26991,10.06,72266.8,-16.49,-17.73,-17.59,0,*67
1483398312.37,26992,10.13,72234.0,-16.49,-17.59,-17.59,0,*6C
1483398313.64,26993,10.06,72228.3,-16.49,-17.55,-17.45,0,*6C
1483398314.91,26994,10.06,72232.0,-16.45,-17.41,-17.41,0,*66
1483398316.16,26995,10.13,72238.8,-16.45,-17.41,-17.31,0,*60
1483398317.4,26996,10.06,72244.3,-16.45,-17.41,-17.31,0,*63
1483398318.67,26997,10.13,72242.3,-16.49,-17.55,-17.41,0,*6C
1483398319.91,26998,10.06,72228.3,-16.45,-17.49,-17.41,0,*62
1483398321.19,26999,10.06,72240.0,-16.49,-17.45,-17.45,0,*67
1483398322.43,27000,10.06,72224.5,-16.45,-17.41,-17.31,0,*64
1483398323.69,27001,10.06,72232.5,-16.49,-17.41,-17.35,0,*6D
1483398324.92,27002,10.06,72240.0,-16.45,-17.31,-17.17,0,*65
1483398326.17,27003,10.13,72248.8,-16.49,-17.35,-17.21,0,*69
1483398327.42,27004,10.06,72270.8,-16.45,-17.35,-17.21,0,*62
1483398328.67,27005,10.06,72266.0,-16.45,-17.35,-17.21,0,*63
1483398329.89,27006,10.06,72250.5,-16.45,-17.35,-17.35,0,*65
1483398331.14,27007,10.06,72256.5,-16.45,-17.41,-17.31,0,*63
1483398332.41,27008,10.06,72252.5,-16.45,-17.41,-17.21,0,*6D
1483398333.63,27009,10.13,72256.0,-16.45,-17.35,-17.35,0,*6A
1483398334.89,27010,10.06,72258.5,-16.45,-17.41,-17.35,0,*61
1483398336.11,27011,10.06,72266.5,-16.45,-17.49,-17.35,0,*68
1483398337.36,27012,10.06,72268.5,-16.45,-17.55,-17.35,0,*66
1483398338.63,27013,10.06,72284.3,-16.49,-17.55,-17.41,0,*68
1483398339.88,27014,10.06,72274.8,-16.45,-17.55,-17.35,0,*60
1483398341.12,27015,10.06,72272.3,-16.45,-17.55,-17.35,0,*61
1483398342.37,27016,10.06,72272.8,-16.45,-17.55,-17.35,0,*62
1483398343.58,27017,10.13,72286.3,-16.45,-17.49,-17.31,0,*6A
1483398344.84,27018,10.06,72290.8,-16.45,-17.41,-17.35,0,*69
1483398346.08,27019,10.06,72282.3,-16.45,-17.63,-17.35,0,*68
1483398347.32,27020,10.06,72296.8,-16.45,-17.79,-17.49,0,*62
1483398348.58,27021,10.06,72278.8,-16.45,-17.63,-17.41,0,*60
1483398349.84,27022,10.06,72280.0,-16.45,-17.63,-17.41,0,*63
1483398351.11,27023,10.06,72274.8,-16.45,-17.55,-17.41,0,*67
1483398352.37,27024,10.06,72276.8,-16.45,-17.63,-17.41,0,*65
1483398353.62,27025,10.06,72282.8,-16.49,-17.69,-17.45,0,*66
1483398354.89,27026,10.06,72274.5,-16.49,-17.59,-17.45,0,*66
1483398356.15,27027,10.13,72282.0,-16.45,-17.63,-17.41,0,*66
1483398357.39,27028,10.06,72290.5,-16.49,-17.73,-17.55,0,*61
1483398358.63,27029,10.06,72278.3,-16.45,-17.63,-17.49,0,*60
1483398359.87,27030,10.13,72286.0,-16.45,-17.69,-17.55,0,*6F
1483398361.12,27031,10.06,72278.0,-16.49,-17.83,-17.59,0,*6A
1483398362.34,27032,10.06,72258.8,-16.49,-17.83,-17.49,0,*68
1483398363.58,27033,10.06,72264.8,-16.45,-17.69,-17.55,0,*6C
1483398364.82,27034,10.13,72260.3,-16.49,-17.73,-17.59,0,*60
1483398366.09,27035,10.13,72244.3,-16.49,-17.59,-17.45,0,*64
1483398367.37,27036,10.06,72254.0,-16.51,-17.45,-17.35,0,*64
1483398368.63,27037,10.06,72260.3,-16.49,-17.41,-17.35,0,*68
1483398369.9,27038,10.06,72274.3,-16.49,-17.41,-17.25,0,*66
1483398371.14,27039,10.06,72290.5,-16.45,-17.31,-17.21,0,*68
1483398372.41,27040,10.06,72292.3,-16.49,-17.41,-17.25,0,*69
1483398373.69,27041,10.06,72278.5,-16.43,-17.35,-17.21,0,*65
1483398374.93,27042,10.06,72246.3,-16.45,-17.35,-17.21,0,*60
1483398376.19,27043,10.06,72232.0,-16.49,-17.45,-17.35,0,*6F
1483398377.43,27044,10.06,72262.3,-16.45,-17.35,-17.17,0,*63
1483398378.67,27045,10.06,72272.5,-16.45,-17.31,-17.21,0,*63
1483398379.91,27046,10.06,72288.8,-16.45,-17.31,-17.17,0,*65
1483398381.15,27047,10.13,72296.0,-16.49,-17.35,-17.25,0,*6D
1483398382.4,27048,10.06,72274.5,-16.45,-17.35,-17.21,0,*6A
1483398383.64,27049,10.06,72278.0,-16.45,-17.35,-17.17,0,*6E
1483398384.88,27050,10.06,72288.8,-16.45,-17.31,-17.03,0,*67
1483398386.13,27051,10.06,72296.5,-16.45,-17.31,-17.07,0,*62
1483398387.4,27052,10.06,72302.5,-16.45,-17.21,-17.17,0,*61
1483398388.67,27053,10.06,72296.3,-16.45,-17.21,-17.07,0,*61
1483398389.94,27054,10.06,72288.5,-16.45,-17.21,-17.17,0,*67
1483398391.18,27055,10.06,72288.0,-16.45,-17.31,-17.17,0,*67
1483398392.41,27056,10.06,72290.0,-16.45,-17.31,-17.17,0,*64
1483398393.65,27057,10.06,72288.3,-16.45,-17.35,-17.17,0,*61
1483398394.87,27058,10.06,72284.0,-16.45,-17.35,-17.31,0,*6A
1483398396.09,27059,10.13,72292.3,-16.45,-17.35,-17.31,0,*6B
1483398397.33,27060,10.06,72288.0,-16.45,-17.41,-17.31,0,*62
1483398398.58,27061,10.13,72284.8,-16.45,-17.41,-17.35,0,*67
1483398399.81,27062,10.06,72288.3,-16.45,-17.49,-17.35,0,*6C
1483398401.02,27063,10.06,72282.0,-16.45,-17.49,-17.31,0,*69
1483398402.27,27064,10.13,72284.0,-16.45,-17.55,-17.35,0,*67
1483398403.5,27065,10.13,72276.0,-16.45,-17.63,-17.49,0,*68
1483398404.74,27066,10.06,72286.5,-16.45,-17.63,-17.49,0,*6B
1483398405.98,27067,10.13,72280.0,-16.49,-17.69,-17.45,0,*60
1483398407.25,27068,10.06,72268.5,-16.45,-17.63,-17.41,0,*6D
1483398408.49,27069,10.06,72272.8,-16.49,-17.69,-17.55,0,*6F
1483398409.73,27070,10.13,72272.8,-16.45,-17.63,-17.49,0,*6C
1483398410.97,27071,10.06,72258.8,-16.49,-17.69,-17.45,0,*67
1483398412.21,27072,10.06,72252.5,-16.49,-17.69,-17.45,0,*64
1483398413.48,27073,10.06,72270.5,-16.45,-17.63,-17.41,0,*67
1483398414.75,27074,10.06,72258.8,-16.49,-17.45,-17.45,0,*6C
1483398416.01,27075,10.06,72258.3,-16.45,-17.41,-17.35,0,*62
1483398417.26,27076,10.13,72262.5,-16.45,-17.41,-17.35,0,*61
1483398418.53,27077,10.06,72258.8,-16.49,-17.59,-17.41,0,*66
1483398419.77,27078,10.06,72256.0,-16.45,-17.55,-17.49,0,*61
1483398421.04,27079,10.06,72266.0,-16.49,-17.59,-17.55,0,*6D
1483398422.3,27080,10.06,72264.3,-16.45,-17.55,-17.41,0,*6E
1483398423.57,27081,10.06,72270.0,-16.45,-17.63,-17.41,0,*6A
1483398424.83,27082,10.06,72276.8,-16.45,-17.55,-17.41,0,*6C
1483398426.08,27083,10.06,72260.8,-16.49,-17.69,-17.55,0,*6B
1483398427.34,27084,10.06,72256.8,-16.49,-17.59,-17.55,0,*6F
1483398428.61,27085,10.06,72242.8,-16.49,-17.59,-17.45,0,*6F
1483398429.84,27086,10.06,72230.0,-16.45,-17.49,-17.35,0,*66
1483398431.08,27087,10.06,72248.0,-16.45,-17.41,-17.31,0,*6B
1483398432.35,27088,10.06,72262.3,-16.45,-17.41,-17.21,0,*65
1483398433.63,27089,10.06,72260.5,-16.45,-17.41,-17.21,0,*64
1483398434.88,27090,10.06,72264.0,-16.45,-17.41,-17.35,0,*69
1483398436.15,27091,10.06,72272.3,-16.49,-17.59,-17.41,0,*6E
1483398437.39,27092,10.06,72266.3,-16.49,-17.69,-17.55,0,*6B
1483398438.63,27093,10.06,72256.8,-16.49,-17.69,-17.55,0,*6A
1483398439.88,27094,10.06,72270.3,-16.49,-17.73,-17.59,0,*6A
1483398441.12,27095,10.06,72264.0,-16.45,-17.73,-17.59,0,*67
1483398442.34,27096,10.06,72240.3,-16.45,-17.83,-17.69,0,*68
1483398443.61,27097,10.06,72214.8,-16.49,-17.79,-17.59,0,*63
1483398444.85,27098,10.06,72222.0,-16.49,-17.73,-17.59,0,*66
1483398446.12,27099,10.06,72250.5,-16.49,-17.55,-17.45,0,*6E
1483398447.38,27100,10.06,72258.8,-16.49,-17.45,-17.35,0,*69
1483398448.66,27101,10.06,72276.0,-16.51,-17.45,-17.35,0,*61
1483398449.94,27102,10.06,72276.8,-16.49,-17.45,-17.41,0,*68
1483398451.21,27103,10.06,72266.5,-16.49,-17.55,-17.41,0,*68
1483398452.46,27104,10.06,72266.0,-16.45,-17.55,-17.35,0,*60
1483398453.72,27105,10.06,72270.0,-16.49,-17.59,-17.45,0,*66
1483398454.97,27106,10.06,72264.3,-16.49,-17.69,-17.45,0,*66
1483398456.24,27107,10.06,72264.8,-16.49,-17.55,-17.55,0,*69
1483398457.51,27108,10.06,72264.8,-16.49,-17.59,-17.45,0,*6B
1483398458.8,27109,10.06,72260.8,-16.51,-17.59,-17.45,0,*63
1483398460.06,27110,10.06,72260.0,-16.53,-17.63,-17.49,0,*6C
1483398461.36,27111,10.06,72268.0,-16.51,-17.45,-17.41,0,*63
1483398462.62,27112,10.06,72268.3,-16.49,-17.41,-17.35,0,*6E
1483398463.89,27113,10.06,72264.0,-16.49,-17.41,-17.25,0,*6E
1483398465.17,27114,10.06,72284.3,-16.49,-17.41,-17.41,0,*6B
1483398466.47,27115,10.06,72280.8,-16.51,-17.45,-17.41,0,*67
1483398467.77,27116,10.06,72278.5,-16.51,-17.45,-17.41,0,*64
1483398469.03,27117,10.13,72292.0,-16.49,-17.45,-17.35,0,*6F
1483398470.28,27118,10.06,72280.0,-16.49,-17.41,-17.35,0,*64
1483398471.54,27119,10.06,72292.0,-16.49,-17.41,-17.35,0,*65
1483398472.82,27120,10.06,72288.3,-16.49,-17.45,-17.41,0,*68
1483398474.09,27121,10.06,72306.5,-16.49,-17.45,-17.41,0,*69
1483398475.35,27122,10.06,72308.0,-16.49,-17.45,-17.35,0,*69
1483398476.62,27123,10.13,72318.0,-16.49,-17.55,-17.41,0,*6A
1483398477.89,27124,10.06,72314.3,-16.49,-17.45,-17.41,0,*6C
1483398479.15,27125,10.06,72304.8,-16.49,-17.45,-17.35,0,*6E
1483398480.39,27126,10.06,72284.0,-16.45,-17.41,-17.31,0,*61
1483398481.65,27127,10.06,72278.8,-16.49,-17.45,-17.35,0,*6C
1483398482.9,27128,10.06,72278.0,-16.49,-17.45,-17.35,0,*63
1483398484.16,27129,10.06,72278.5,-16.49,-17.45,-17.35,0,*62
1483398485.39,27130,10.06,72288.5,-16.49,-17.35,-17.35,0,*6D
1483398486.64,27131,10.06,72280.3,-16.49,-17.35,-17.25,0,*6D
1483398487.91,27132,10.06,72272.5,-16.49,-17.41,-17.41,0,*6F
1483398489.18,27133,10.06,72278.3,-16.49,-17.55,-17.41,0,*6B
1483398490.46,27134,10.06,72302.5,-16.49,-17.45,-17.41,0,*6D
1483398491.74,27135,10.06,72306.3,-16.49,-17.41,-17.41,0,*68
1483398493.01,27136,10.06,72302.3,-16.49,-17.45,-17.41,0,*6F
1483398494.28,27137,10.06,72296.3,-16.49,-17.55,-17.41,0,*6F
1483398495.55,27138,10.06,72276.8,-16.49,-17.59,-17.41,0,*6C